[[{"header":{"parameterUnit":"m.s-1","parameterCategory":1,"la1":30.2991,"la2":30.254,"lo1":-89.0895,"lo2":-89.0444,"dy":0.0017,"dx":0.0017,"nx":28,"ny":28,"refTime":"2024-10-14T21:00:00:Z","depth":0,"parameterNumber":2,"parameterNumberName":"U-component_of_WINDS"},"data":[0,0,0,0,0,0,0,0,0,0,0,0,0,0,0,0,0,0,0,0,0,0,0,0,0,0,0,0,0,0,0,0,0,0,0,0,0,0,0,0,0,0,0,0,0,0,0,0,0,0,0,0,0,0,0,0,0,0,-3.6341,-3.6341,0,-3.6374,-3.6375,-3.6375,-3.6271,-3.6268,-3.6265,-3.6262,-3.6295,-3.6299,-3.6303,0,0,0,0,0,0,0,0,0,0,0,0,0,-3.6186,-3.6189,-3.6341,-3.6341,-3.6342,-3.6374,-3.6375,-3.6375,-3.6272,-3.6268,-3.6264,-3.6261,-3.6294,-3.6299,-3.6303,0,0,0,0,0,0,0,0,0,0,0,0,0,-3.624,-3.619,-3.6341,-3.6294,-3.629,-3.6374,-3.6375,-3.6375,-3.6273,-3.6268,-3.6263,-3.6259,-3.6293,-3.6298,-3.6304,-3.6434,0,0,-3.6321,-3.6324,0,0,0,0,0,0,0,0,-3.6237,-3.6245,-3.6301,-3.6297,-3.6293,-3.6314,-3.6332,-3.6395,-3.6274,-3.6279,-3.6262,-3.6257,-3.6305,-3.631,-3.6326,-3.6436,-3.6437,-3.6322,-3.6325,-3.6328,-3.633,0,0,0,0,0,0,0,-3.6233,-3.6243,-3.6354,-3.6301,-3.6297,-3.6271,-3.6273,-3.6344,-3.6318,-3.6279,-3.6271,-3.6277,-3.6302,-3.6321,-3.6326,-3.6437,-3.6322,-3.6327,-3.633,-3.6333,-3.6654,-3.6658,0,0,0,0,0,0,-3.6236,-3.6241,-3.6353,-3.6355,-3.6253,-3.6278,-3.628,-3.6312,-3.6317,-3.6314,-3.6281,-3.6272,-3.6314,-3.632,-3.6327,-3.6478,-3.6328,-3.6333,-3.6337,-3.6649,-3.6655,-3.666,0,0,0,0,0,0,-3.6233,-3.6247,-3.6351,-3.6296,-3.6307,-3.6285,-3.6322,-3.6315,-3.6334,-3.6319,-3.6314,-3.6304,-3.631,-3.6319,-3.6408,-3.6478,-3.6336,-3.6341,-3.6643,-3.665,-3.6657,-3.6783,0,0,0,0,0,0,-3.6229,-3.6246,-3.6296,-3.6298,-3.6311,-3.6433,-3.6326,-3.6319,-3.6344,-3.6333,-3.634,-3.6336,-3.6307,-3.64,-3.6414,-3.6483,-3.6346,-3.6636,-3.6646,-3.6655,-3.6772,-3.6794,-3.6812,0,0,0,0,0,-3.6224,-3.633,-3.6299,-3.6313,-3.6372,-3.6437,-3.6444,-3.6408,-3.635,-3.6399,-3.639,-3.6336,-3.6469,-3.641,-3.6424,-3.6497,-3.6631,-3.6643,-3.6654,-3.6763,-3.679,-3.6812,0,0,0,0,0,0,-3.6336,-3.6329,-3.6295,-3.6405,-3.6422,-3.6419,-3.648,-3.6437,-3.6471,-3.6459,-3.6413,-3.6416,-3.6513,-3.6514,-3.6448,-3.6623,-3.654,-3.6555,-3.6618,-3.6643,-3.6662,-3.6659,-3.635,0,0,0,0,0,-3.6374,-3.6428,-3.6418,-3.6517,-3.6527,-3.6503,-3.6529,-3.65,-3.6516,-3.6523,-3.652,-3.6537,-3.6582,-3.6613,-3.6654,-3.6773,-3.6772,-3.683,-3.685,-3.6866,-3.6879,-3.6941,-3.6966,-3.6698,-3.6698,-3.6697,0,0,-3.6452,-3.6455,-3.6492,-3.6539,-3.6549,-3.6605,-3.6509,-3.6572,-3.6613,-3.6532,-3.6615,-3.6614,-3.663,-3.6735,-3.678,-3.6738,-3.6953,-3.6881,-3.6894,-3.6898,-3.6955,-3.6981,-3.7003,-3.6706,-3.6704,-3.6703,0,0,-3.6623,-3.6632,-3.6713,-3.6725,-3.6742,-3.6725,-3.6745,-3.6748,-3.6744,-3.6827,-3.6767,-3.6815,-3.6894,-3.6908,-3.6925,-3.7101,-3.7053,-3.7116,-3.722,-3.728,-3.7301,-3.732,-3.7381,-3.7404,-3.7129,-3.713,-3.713,0,-3.6718,-3.68,-3.6761,-3.6828,-3.685,-3.678,-3.6862,-3.6876,-3.6905,-3.6921,-3.6874,-3.6972,-3.6978,-3.7083,-3.7126,-3.7143,-3.7164,-3.7114,-3.7302,-3.732,-3.7336,-3.7394,-3.7418,-3.7137,-3.7136,-3.7135,-3.7135,0,-3.6915,-3.6973,-3.7037,-3.7067,-3.7096,-3.7171,-3.7142,-3.7177,-3.7146,-3.7133,-3.7218,-3.7223,-3.7263,-3.7287,-3.7257,-3.7388,-3.7362,-3.731,-3.7225,-3.737,-3.7423,-3.7446,-3.7148,-3.7145,-3.7143,-3.7141,0,0,-3.7156,-3.7164,-3.7188,-3.72,-3.7213,-3.7256,-3.7328,-3.7367,-3.7397,-3.742,-3.7477,-3.7546,-3.7497,-3.7517,-3.7488,-3.7542,-3.7679,-3.7482,-3.7482,-3.7517,-3.7823,-3.7861,-3.7887,-3.7648,-3.7652,-3.7655,-3.7821,0,-3.7323,-3.7444,-3.7411,-3.7532,-3.7584,-3.7519,-3.7581,-3.7595,-3.7586,-3.7628,-3.7618,-3.7667,-3.76,-3.7611,-3.7661,-3.7652,-3.774,-3.764,-3.77,-3.7702,-3.7696,-3.7915,-3.7956,-3.8112,-3.7842,-3.7845,-3.7848,0,-3.7533,-3.7564,-3.769,-3.7694,-3.7714,-3.7771,-3.7803,-3.7845,-3.786,-3.785,-3.7872,-3.7833,-3.7902,-3.7819,-3.7913,-3.7845,-3.7868,-3.7868,-3.7873,-3.7875,-3.7783,-3.7922,-3.8161,-3.8183,-3.7881,-3.7878,-3.7876,0,-3.7694,-3.7767,-3.7852,-3.7865,-3.7872,-3.7912,-3.7917,-3.7927,-3.7953,-3.7982,-3.7998,-3.8035,-3.8055,-3.8085,-3.8056,-3.7998,-3.8154,-3.8069,-3.8146,-3.8147,-3.818,-3.8178,-3.8424,-3.8198,-3.8198,-3.8198,-3.8197,0,-3.7882,-3.7962,-3.7924,-3.7976,-3.8063,-3.8024,-3.8111,-3.8108,-3.8118,-3.8168,-3.8115,-3.8162,-3.8122,-3.8166,-3.8144,-3.8225,-3.8235,-3.8227,-3.822,-3.8231,-3.8232,-3.8244,-3.8232,-3.8204,-3.8202,-3.8201,-3.82,0,-3.8076,-3.8054,-3.8142,-3.8142,-3.8143,-3.8207,-3.8207,-3.8254,-3.8241,-3.8305,-3.8318,-3.8298,-3.8347,-3.8322,-3.8373,-3.8358,-3.8461,-3.8441,-3.8456,-3.845,-3.8528,-3.8521,-3.8789,-3.8821,-3.8577,-3.8579,-3.8581,0,-3.8197,-3.8256,-3.8262,-3.8292,-3.83,-3.8349,-3.8375,-3.8339,-3.8368,-3.839,-3.8435,-3.8479,-3.8513,-3.8595,-3.8584,-3.8623,-3.8601,-3.8693,-3.8607,-3.8615,-3.86,-3.8597,-3.8602,-3.8709,-3.8712,-3.8715,-3.8716,0,-3.8412,-3.8399,-3.8438,-3.8474,-3.8507,-3.8533,-3.8555,-3.8583,-3.8548,-3.8583,-3.8633,-3.8659,-3.8711,-3.8755,-3.8789,-3.8793,-3.8749,-3.8744,-3.8763,-3.8774,-3.878,-3.8776,-3.8501,-3.8737,-3.8735,-3.8734,-3.8733,-3.8732,-3.8572,-3.8621,-3.8633,-3.8679,-3.8692,-3.8713,-3.8758,-3.8751,-3.8792,-3.8831,-3.8808,-3.8866,-3.8879,-3.8919,-3.8929,-3.8974,-3.8937,-3.8966,-3.8973,-3.898,-3.899,-3.8775,-3.898,-3.898,-3.8979,-3.8978,-3.8978,0,-3.8783,-3.8788,-3.883,-3.8862,-3.8898,-3.8855,-3.8877,-3.8909,-3.8961,-3.8977,-3.9011,-3.9068,-3.9111,-3.9105,-3.9144,-3.9181,-3.9161,-3.9192,-3.9188,-3.9189,-3.9021,-3.9,-3.9207,-3.9207,-3.9207,-3.9207,-3.9207,-3.9207,-3.8897,-3.8978,-3.8966,-3.9052,-3.9056,-3.9112,-3.9128,-3.9148,-3.916,-3.9226,-3.9262,-3.9258,-3.9264,-3.9303,-3.9341,-3.9338,-3.9354,-3.9392,-3.9381,-3.9224,-3.9201,-3.918,-3.9159,-3.9396,-3.9396,-3.9545,-3.9546,-3.9547]},{"header":{"parameterUnit":"m.s-1","parameterCategory":1,"la1":30.2991,"la2":30.254,"lo1":-89.0895,"lo2":-89.0444,"dy":0.0017,"dx":0.0017,"nx":28,"ny":28,"refTime":"2024-10-14T21:00:00:Z","depth":0,"parameterNumber":3,"parameterNumberName":"V-component_of_WINDS"},"data":[0,0,0,0,0,0,0,0,0,0,0,0,0,0,0,0,0,0,0,0,0,0,0,0,0,0,0,0,0,0,0,0,0,0,0,0,0,0,0,0,0,0,0,0,0,0,0,0,0,0,0,0,0,0,0,0,0,0,-0.7533,-0.7533,0,-0.7558,-0.7559,-0.7559,-0.7583,-0.7583,-0.7583,-0.7583,-0.7607,-0.7608,-0.7608,0,0,0,0,0,0,0,0,0,0,0,0,0,-0.7501,-0.7501,-0.7533,-0.7533,-0.7533,-0.7558,-0.7559,-0.7559,-0.7582,-0.7583,-0.7583,-0.7584,-0.7607,-0.7608,-0.7608,0,0,0,0,0,0,0,0,0,0,0,0,0,-0.7519,-0.7501,-0.7533,-0.7548,-0.755,-0.7558,-0.7559,-0.7559,-0.7582,-0.7583,-0.7583,-0.7584,-0.7607,-0.7608,-0.7608,-0.7603,0,0,-0.761,-0.761,0,0,0,0,0,0,0,0,-0.7518,-0.752,-0.7546,-0.7547,-0.7549,-0.7568,-0.7556,-0.7574,-0.7582,-0.757,-0.7583,-0.7584,-0.7594,-0.7595,-0.7599,-0.7604,-0.7605,-0.761,-0.761,-0.7611,-0.7611,0,0,0,0,0,0,0,-0.7517,-0.7519,-0.7543,-0.7546,-0.7548,-0.7553,-0.7556,-0.756,-0.7579,-0.7571,-0.7573,-0.7576,-0.7595,-0.7599,-0.76,-0.7605,-0.761,-0.761,-0.7611,-0.7611,-0.7604,-0.7604,0,0,0,0,0,0,-0.7514,-0.7518,-0.7542,-0.7544,-0.7534,-0.7553,-0.7556,-0.7561,-0.7579,-0.7582,-0.7575,-0.7577,-0.7597,-0.7599,-0.7601,-0.7594,-0.761,-0.7611,-0.7611,-0.7605,-0.7604,-0.7603,0,0,0,0,0,0,-0.7513,-0.7516,-0.7541,-0.7531,-0.7535,-0.7553,-0.7558,-0.7561,-0.7565,-0.7582,-0.7585,-0.7576,-0.7598,-0.76,-0.7602,-0.7595,-0.7611,-0.7612,-0.7605,-0.7604,-0.7604,-0.7582,0,0,0,0,0,0,-0.7512,-0.7515,-0.7514,-0.7531,-0.7535,-0.7543,-0.7558,-0.7562,-0.7567,-0.7569,-0.7584,-0.7587,-0.7598,-0.7601,-0.7602,-0.7596,-0.7612,-0.7606,-0.7605,-0.7604,-0.7583,-0.758,-0.7578,0,0,0,0,0,-0.7511,-0.7507,-0.7514,-0.7517,-0.7535,-0.7542,-0.7544,-0.7559,-0.7566,-0.7564,-0.7575,-0.7586,-0.7596,-0.7601,-0.7603,-0.7597,-0.7606,-0.7605,-0.7604,-0.7584,-0.7581,-0.7578,0,0,0,0,0,0,-0.7489,-0.751,-0.7518,-0.752,-0.7529,-0.7546,-0.7545,-0.7555,-0.7562,-0.7564,-0.758,-0.7583,-0.7583,-0.759,-0.7595,-0.7591,-0.7602,-0.7602,-0.7587,-0.7584,-0.7581,-0.7579,-0.7613,0,0,0,0,0,-0.7484,-0.7489,-0.7507,-0.7507,-0.7511,-0.7527,-0.7531,-0.7541,-0.7551,-0.7555,-0.7565,-0.7574,-0.7579,-0.7582,-0.7587,-0.7584,-0.7587,-0.7581,-0.7578,-0.7576,-0.7575,-0.7572,-0.7569,-0.76,-0.76,-0.76,0,0,-0.7475,-0.7487,-0.7489,-0.7503,-0.7511,-0.7515,-0.753,-0.7534,-0.7536,-0.7555,-0.7557,-0.7565,-0.7575,-0.7574,-0.7574,-0.758,-0.7567,-0.7574,-0.7573,-0.7573,-0.757,-0.7567,-0.7565,-0.7599,-0.7599,-0.7599,0,0,-0.746,-0.747,-0.747,-0.7478,-0.749,-0.75,-0.75,-0.7515,-0.7521,-0.7524,-0.7537,-0.754,-0.7548,-0.7554,-0.7559,-0.7543,-0.7553,-0.7544,-0.7531,-0.7528,-0.7525,-0.7523,-0.7516,-0.7514,-0.7543,-0.7543,-0.7543,0,-0.7446,-0.7453,-0.7469,-0.7471,-0.7476,-0.7493,-0.7492,-0.7499,-0.7512,-0.7514,-0.7521,-0.753,-0.7539,-0.7538,-0.7534,-0.7538,-0.7537,-0.7543,-0.7524,-0.7522,-0.7521,-0.7514,-0.7512,-0.7542,-0.7542,-0.7542,-0.7542,0,-0.7435,-0.744,-0.7438,-0.7451,-0.7455,-0.7456,-0.747,-0.7473,-0.7481,-0.749,-0.7491,-0.7502,-0.7509,-0.7509,-0.7518,-0.7509,-0.7513,-0.7522,-0.7533,-0.7516,-0.751,-0.7508,-0.754,-0.7541,-0.7541,-0.7541,0,0,-0.7409,-0.7428,-0.7427,-0.7432,-0.7446,-0.7449,-0.7449,-0.7456,-0.7457,-0.7465,-0.7465,-0.7471,-0.7479,-0.7483,-0.7493,-0.749,-0.7475,-0.7499,-0.75,-0.7493,-0.7464,-0.7457,-0.7454,-0.7482,-0.7481,-0.7481,-0.7463,0,-0.7395,-0.7398,-0.7411,-0.741,-0.7413,-0.7428,-0.7428,-0.7435,-0.7443,-0.7446,-0.7454,-0.7457,-0.7468,-0.7471,-0.7469,-0.7477,-0.7469,-0.7479,-0.748,-0.748,-0.7477,-0.7451,-0.7444,-0.7426,-0.7461,-0.746,-0.746,0,-0.738,-0.7387,-0.7386,-0.7397,-0.7399,-0.7399,-0.7405,-0.7408,-0.7416,-0.7422,-0.7426,-0.7437,-0.7436,-0.7447,-0.7446,-0.7452,-0.7453,-0.7457,-0.7457,-0.7457,-0.7469,-0.745,-0.7421,-0.7418,-0.7457,-0.7457,-0.7457,0,-0.7359,-0.7368,-0.7368,-0.7372,-0.7386,-0.7385,-0.739,-0.7399,-0.7402,-0.7407,-0.7408,-0.7413,-0.7415,-0.7418,-0.7429,-0.7436,-0.7426,-0.7438,-0.7429,-0.7429,-0.7427,-0.7427,-0.7397,-0.7428,-0.7428,-0.7428,-0.7428,0,-0.7343,-0.7341,-0.7358,-0.7358,-0.7356,-0.737,-0.7367,-0.7374,-0.7381,-0.7381,-0.7394,-0.7394,-0.7408,-0.7409,-0.7417,-0.7414,-0.7416,-0.7419,-0.7421,-0.7418,-0.7417,-0.7418,-0.742,-0.7428,-0.7428,-0.7428,-0.7428,0,-0.732,-0.7331,-0.7332,-0.7344,-0.7347,-0.7345,-0.7355,-0.7355,-0.7363,-0.7363,-0.7363,-0.7376,-0.7377,-0.7388,-0.7392,-0.7397,-0.7391,-0.7396,-0.7388,-0.7389,-0.738,-0.738,-0.735,-0.7346,-0.738,-0.738,-0.738,0,-0.7308,-0.7307,-0.7319,-0.732,-0.7325,-0.7327,-0.733,-0.7342,-0.7344,-0.7352,-0.735,-0.7352,-0.7355,-0.7357,-0.7365,-0.7368,-0.7372,-0.7361,-0.7373,-0.7369,-0.7371,-0.737,-0.737,-0.7359,-0.7358,-0.7358,-0.7358,0,-0.7286,-0.7291,-0.7295,-0.7299,-0.7302,-0.7306,-0.7311,-0.7311,-0.7325,-0.7326,-0.7327,-0.7329,-0.7333,-0.7335,-0.7338,-0.7343,-0.7352,-0.7354,-0.7352,-0.7348,-0.7343,-0.7345,-0.7381,-0.7355,-0.7355,-0.7355,-0.7355,-0.7356,-0.7268,-0.7267,-0.7275,-0.7277,-0.7282,-0.7286,-0.7285,-0.7293,-0.7294,-0.7299,-0.7305,-0.7306,-0.7311,-0.7317,-0.7321,-0.732,-0.7326,-0.7323,-0.7322,-0.7321,-0.7319,-0.7344,-0.7321,-0.7321,-0.7321,-0.7321,-0.7321,0,-0.7246,-0.7251,-0.7253,-0.7259,-0.726,-0.7269,-0.7274,-0.7275,-0.7275,-0.728,-0.7282,-0.7282,-0.7284,-0.7291,-0.7293,-0.7291,-0.7295,-0.7291,-0.7291,-0.7291,-0.7314,-0.7315,-0.7287,-0.7287,-0.7287,-0.7287,-0.7287,-0.7288,-0.7234,-0.7232,-0.7238,-0.7238,-0.7243,-0.7243,-0.7245,-0.7248,-0.7252,-0.7252,-0.7253,-0.7258,-0.7264,-0.7265,-0.7266,-0.7268,-0.7268,-0.7262,-0.7266,-0.7287,-0.729,-0.7293,-0.7294,-0.7262,-0.7262,-0.7243,-0.7243,-0.7242]}]]